South Bend, IN

3:38 AM EDT on July 25, 2017 (GMT -0400)
South Bend Regional

Weather History for KSBN - February, 2013

Change the Weather History Date:

Wednesday, February 20, 2013

  Actual Average Record
Temperature  
Mean Temperature 19 °F 29 °F  
Max Temperature 22 °F 37 °F 65 °F (1983)
Min Temperature 15 °F 22 °F -12 °F (2015)
Degree Days  
Heating Degree Days 46 36  
Month to date heating degree days 768 767  
Since 1 July heating degree days 4116 4415  
Cooling Degree Days 0 0  
Month to date cooling degree days 0 0  
Year to date cooling degree days 0 0  
Moisture  
Dew Point 12 °F    
Average Humidity 78    
Maximum Humidity 88    
Minimum Humidity 68    
Precipitation  
Precipitation 0.11 in 0.07 in 1.64 in (2014)
Month to date precipitation 1.45 1.33  
Year to date precipitation 6.45 3.62  
Snow  
Snow 4.30 in 0.50 in 4.60 in (1963)
Month to date snowfall 11.4  
Since 1 July snowfall 54.5  
Snow Depth 3.00 in    
Sea Level Pressure  
Sea Level Pressure 30.21 in    
Wind  
Wind Speed 12 mph (WNW)    
Max Wind Speed 17 mph    
Max Gust Speed 23 mph    
Visibility 2 miles    
Events Snow    
T = Trace of Precipitation, MM = Missing Value Source: NWS Daily Summary

Daily Weather History Graph

Daily Weather History Graph

Search for Another Location

Airport or City:

Trip Planner

Search our weather history database for the weather conditions in past years. The results will help you decide how hot, cold, wet, or windy it might be!

Date:

Astronomy

Feb. 20, 2013 Rise Set
Actual Time 7:33 AM EST 6:25 PM EST
Civil Twilight 7:05 AM EST 6:53 PM EST
Nautical Twilight 6:32 AM EST 7:25 PM EST
Astronomical Twilight 6:00 AM EST 7:58 PM EST
Moon 1:43 PM EST (2/20) 3:55 AM EST (2/20)
Length of Visible Light 11h 48m
Length of Day
10h 51m
Waxing Gibbous, 76% of the Moon is Illuminated
Feb 20
Waxing Gibbous
Feb 25
Full
Mar 4
Last Quarter
Mar 11
New
Mar 19
First Quarter

Hourly Weather History & Observations

Time (EST) Temp. Windchill Dew Point Humidity Pressure Visibility Wind Dir Wind Speed Gust Speed Precip Events Conditions
12:00 AM 15.8 °F 1.4 °F 12.2 °F 86% 30.07 in 1.0 mi West 13.8 mph - 0.00 in Snow Light Snow
12:22 AM 15.8 °F 1.4 °F 10.4 °F 79% 30.08 in 2.0 mi WNW 13.8 mph - 0.00 in Snow Light Snow
12:30 AM 15.8 °F 0.9 °F 10.4 °F 79% 30.08 in 1.5 mi WNW 15.0 mph - 0.00 in Snow Light Snow
12:38 AM 15.8 °F 2.1 °F 10.4 °F 79% 30.08 in 3.0 mi WNW 12.7 mph - 0.00 in Snow Light Snow
12:50 AM 15.8 °F 2.1 °F 10.4 °F 79% 30.08 in 1.8 mi WNW 12.7 mph - 0.00 in Snow Light Snow
12:54 AM 15.8 °F 3.4 °F 10.4 °F 79% 30.08 in 1.5 mi WNW 10.4 mph - N/A Snow Light Snow
1:15 AM 15.8 °F 2.1 °F 10.4 °F 79% 30.09 in 3.0 mi WNW 12.7 mph - 0.00 in Snow Light Snow
1:23 AM 15.8 °F 0.3 °F 10.4 °F 79% 30.09 in 2.0 mi WNW 16.1 mph - 0.00 in Snow Light Snow
1:30 AM 15.8 °F 2.7 °F 10.4 °F 79% 30.10 in 1.5 mi WNW 11.5 mph - 0.00 in Snow Light Snow
1:42 AM 15.8 °F 0.3 °F 10.4 °F 79% 30.10 in 1.8 mi WNW 16.1 mph - 0.00 in Snow Light Snow
1:49 AM 15.8 °F 2.7 °F 10.4 °F 79% 30.10 in 3.0 mi WNW 11.5 mph - 0.00 in Snow Light Snow
1:50 AM 15.1 °F 2.5 °F 10.0 °F 80% 30.15 in 3.0 mi WNW 10.4 mph - 0.00 in Snow Light Snow
2:07 AM 15.8 °F 3.4 °F 10.4 °F 79% 30.11 in 1.8 mi WNW 10.4 mph - 0.00 in Snow Light Snow
2:15 AM 15.8 °F 4.2 °F 10.4 °F 79% 30.11 in 1.2 mi West 9.2 mph - 0.00 in Snow Light Snow
2:29 AM 15.8 °F 4.2 °F 10.4 °F 79% 30.12 in 1.8 mi West 9.2 mph - 0.00 in Snow Light Snow
2:37 AM 15.8 °F 2.1 °F 10.4 °F 79% 30.12 in 2.0 mi West 12.7 mph - 0.00 in Snow Light Snow
2:51 AM 15.8 °F 2.7 °F 10.4 °F 79% 30.12 in 3.0 mi West 11.5 mph - 0.00 in Snow Light Snow
2:54 AM 15.1 °F 1.1 °F 10.0 °F 80% 30.17 in 4.0 mi West 12.7 mph - 0.00 in Snow Light Snow
3:45 AM 15.8 °F 1.4 °F 8.6 °F 73% 30.13 in 2.5 mi WNW 13.8 mph 20.7 mph 0.00 in Snow Light Snow
3:54 AM 15.1 °F -0.6 °F 9.0 °F 77% 30.18 in 3.0 mi WNW 16.1 mph - 0.00 in Snow Light Snow
4:44 AM 15.8 °F 0.9 °F 8.6 °F 73% 30.15 in 2.0 mi West 15.0 mph - 0.00 in Snow Light Snow
4:54 AM 15.1 °F 1.1 °F 9.0 °F 77% 30.20 in 3.0 mi West 12.7 mph - 0.00 in Snow Light Snow
5:54 AM 15.1 °F -0.6 °F 9.0 °F 77% 30.22 in 4.0 mi WNW 16.1 mph 21.9 mph 0.00 in Snow Light Snow
5:57 AM 15.8 °F -0.2 °F 8.6 °F 73% 30.17 in 2.0 mi WNW 17.3 mph - N/A Snow Light Snow
6:54 AM 15.8 °F 1.4 °F 10.4 °F 79% 30.18 in 2.0 mi WNW 13.8 mph - N/A Snow Light Snow
7:54 AM 16.0 °F 0.6 °F 10.0 °F 77% 30.24 in 2.0 mi WNW 16.1 mph 23.0 mph 0.00 in Snow Light Snow
8:34 AM 15.8 °F 2.1 °F 10.4 °F 79% 30.20 in 1.8 mi WNW 12.7 mph - N/A Snow Light Snow
8:54 AM 17.1 °F 4.3 °F 12.0 °F 81% 30.25 in 1.0 mi WNW 11.5 mph - 0.00 in Snow Light Snow
9:54 AM 17.6 °F 5.7 °F 12.2 °F 79% 30.21 in 1.0 mi West 10.4 mph - N/A Snow Light Snow
10:13 AM 17.6 °F 6.4 °F 12.2 °F 79% 30.22 in 0.8 mi West 9.2 mph - 0.00 in Snow Light Snow
10:54 AM 19.0 °F 7.5 °F 14.0 °F 81% 30.28 in 1.0 mi WNW 10.4 mph - 0.00 in Snow Light Snow
11:54 AM 19.9 °F 7.3 °F 14.0 °F 78% 30.30 in 1.0 mi WNW 12.7 mph - 0.01 in Snow Light Snow
12:54 PM 19.9 °F 7.3 °F 15.1 °F 81% 30.30 in 1.0 mi West 12.7 mph - 0.00 in Snow Light Snow
1:54 PM 21.0 °F 7.6 °F 16.0 °F 81% 30.28 in 1.0 mi WNW 15.0 mph - 0.00 in Snow Light Snow
2:54 PM 21.0 °F 7.6 °F 15.1 °F 78% 30.33 in 1.5 mi WNW 15.0 mph - 0.00 in Snow Light Snow
3:20 PM 21.2 °F 6.4 °F 15.8 °F 80% 30.29 in 3.0 mi WNW 18.4 mph - 0.00 in Snow Light Snow
3:26 PM 21.2 °F 6.8 °F 15.8 °F 80% 30.29 in 2.5 mi WNW 17.3 mph 24.2 mph 0.00 in Snow Light Snow
3:54 PM 21.0 °F 6.6 °F 12.9 °F 71% 30.33 in 6.0 mi NW 17.3 mph 23.0 mph 0.00 in Snow Light Snow
3:56 PM 21.2 °F 8.3 °F 12.2 °F 68% 30.28 in 2.5 mi NW 13.8 mph 23.0 mph 0.00 in Snow Light Snow
4:20 PM 21.2 °F 7.8 °F 15.8 °F 80% 30.28 in 2.5 mi WNW 15.0 mph - 0.00 in Snow Light Snow
4:45 PM 19.4 °F 6.0 °F 15.8 °F 86% 30.28 in 2.5 mi WNW 13.8 mph - 0.00 in Snow Light Snow
4:54 PM 19.9 °F 7.3 °F 15.1 °F 81% 30.33 in 2.5 mi West 12.7 mph - 0.00 in Snow Light Snow
5:33 PM 21.2 °F 10.1 °F 15.8 °F 80% 30.28 in 2.5 mi NW 10.4 mph - 0.00 in Snow Light Snow
5:50 PM 21.2 °F 10.1 °F 15.8 °F 80% 30.29 in 2.5 mi NW 10.4 mph - 0.00 in Snow Light Snow
5:54 PM 21.0 °F 10.6 °F 15.1 °F 78% 30.33 in 2.5 mi NW 9.2 mph - 0.00 in Snow Light Snow
6:54 PM 21.0 °F 11.4 °F 16.0 °F 81% 30.35 in 3.0 mi NW 8.1 mph - 0.00 in Snow Light Snow
7:54 PM 21.9 °F 12.5 °F 16.0 °F 78% 30.35 in 7.0 mi NNW 8.1 mph - 0.00 in Snow Light Snow
8:54 PM 21.9 °F 11.0 °F 16.0 °F 78% 30.35 in 5.0 mi NNW 10.4 mph - 0.00 in Snow Light Snow
9:54 PM 21.9 °F 14.5 °F 17.1 °F 82% 30.35 in 5.0 mi NNW 5.8 mph - 0.00 in Snow Light Snow
10:54 PM 21.0 °F 14.6 °F 17.1 °F 85% 30.35 in 5.0 mi WNW 4.6 mph - 0.00 in Snow Light Snow
11:54 PM 21.0 °F 16.2 °F 18.0 °F 88% 30.34 in 6.0 mi WSW 3.5 mph - 0.00 in Snow Light Snow